AUR507 EGJA-EGHI

Flight info

Callsign AUR507
Flight time 0h 32m
Altitude 11000
Route ORTAC Q41 THRED
Aircraft DHC6/L-SDFGR/C

Departure

Time 2026-04-22 15:11
Airport Alderney Airport (EGJA)

Arrival

Time 2026-04-22 15:44
Airport Southampton Airport (EGHI)
Time Latitude Longitude Altitude Speed Heading
2026-04-22 14:58 49.70833 -2.21468 273 ft 0 kts 204°
2026-04-22 15:09 49.70803 -2.21476 272 ft 8 kts 222°
2026-04-22 15:09 49.70747 -2.21574 269 ft 16 kts 182°
2026-04-22 15:09 49.70666 -2.21557 265 ft 11 kts 237°
2026-04-22 15:10 49.70643 -2.21722 265 ft 20 kts 258°
2026-04-22 15:10 49.70613 -2.21938 267 ft 22 kts 241°
2026-04-22 15:10 49.70603 -2.22036 270 ft 5 kts 68°
2026-04-22 15:10 49.70638 -2.21765 266 ft 58 kts 79°
2026-04-22 15:11 49.70792 -2.20959 375 ft 99 kts 62°
2026-04-22 15:11 49.71265 -2.20122 639 ft 117 kts 41°
2026-04-22 15:11 49.72137 -2.19796 791 ft 135 kts 21°
2026-04-22 15:11 49.73063 -2.19441 1012 ft 139 kts 24°
2026-04-22 15:12 49.74016 -2.19082 1225 ft 142 kts 24°
2026-04-22 15:12 49.74985 -2.18723 1452 ft 144 kts 25°
2026-04-22 15:12 49.75955 -2.18380 1668 ft 146 kts 25°
2026-04-22 15:12 49.76969 -2.18107 1889 ft 156 kts 13°
2026-04-22 15:13 49.78077 -2.18544 2111 ft 164 kts 357°
2026-04-22 15:13 49.79181 -2.18526 2338 ft 155 kts 18°
2026-04-22 15:13 49.80227 -2.18289 2574 ft 153 kts 24°
2026-04-22 15:13 49.81255 -2.17873 2821 ft 153 kts 28°
2026-04-22 15:14 49.82276 -2.17384 3056 ft 155 kts 29°
2026-04-22 15:14 49.83319 -2.16855 3268 ft 156 kts 30°
2026-04-22 15:14 49.84342 -2.16322 3483 ft 158 kts 30°
2026-04-22 15:14 49.85387 -2.15770 3703 ft 159 kts 30°
2026-04-22 15:15 49.86432 -2.15218 3914 ft 159 kts 30°
2026-04-22 15:15 49.87480 -2.14666 4125 ft 160 kts 31°
2026-04-22 15:15 49.88522 -2.14089 4275 ft 158 kts 31°
2026-04-22 15:15 49.89551 -2.13504 4352 ft 158 kts 33°
2026-04-22 15:16 49.90581 -2.12904 4422 ft 158 kts 33°
2026-04-22 15:16 49.91607 -2.12293 4498 ft 158 kts 32°
2026-04-22 15:16 49.92629 -2.11672 4583 ft 158 kts 33°
2026-04-22 15:16 49.93649 -2.11040 4665 ft 158 kts 34°
2026-04-22 15:17 49.94668 -2.10398 4740 ft 158 kts 33°
2026-04-22 15:17 49.95684 -2.09744 4818 ft 158 kts 35°
2026-04-22 15:17 49.96695 -2.09079 4902 ft 158 kts 36°
2026-04-22 15:17 49.97701 -2.08410 4988 ft 157 kts 34°
2026-04-22 15:18 49.98701 -2.07729 5071 ft 157 kts 37°
2026-04-22 15:18 49.99695 -2.07040 5151 ft 156 kts 37°
2026-04-22 15:18 50.00682 -2.06345 5238 ft 155 kts 37°
2026-04-22 15:18 50.01663 -2.05643 5313 ft 155 kts 35°
2026-04-22 15:19 50.02642 -2.04933 5383 ft 155 kts 37°
2026-04-22 15:19 50.03614 -2.04218 5455 ft 154 kts 36°
2026-04-22 15:19 50.04578 -2.03496 5522 ft 154 kts 36°
2026-04-22 15:19 50.05539 -2.02767 5613 ft 154 kts 38°
2026-04-22 15:20 50.06496 -2.02029 5694 ft 153 kts 39°
2026-04-22 15:20 50.07449 -2.01282 5774 ft 153 kts 37°
2026-04-22 15:20 50.08394 -2.00524 5846 ft 153 kts 39°
2026-04-22 15:20 50.09337 -1.99759 5917 ft 153 kts 40°
2026-04-22 15:21 50.10277 -1.98988 5993 ft 152 kts 38°
2026-04-22 15:21 50.11211 -1.98205 6065 ft 152 kts 41°
2026-04-22 15:21 50.12140 -1.97408 6141 ft 152 kts 42°
2026-04-22 15:21 50.13064 -1.96608 6210 ft 152 kts 39°
2026-04-22 15:22 50.13987 -1.95804 6280 ft 152 kts 39°
2026-04-22 15:22 50.14906 -1.94986 6362 ft 152 kts 41°
2026-04-22 15:22 50.15819 -1.94157 6446 ft 151 kts 40°
2026-04-22 15:22 50.16724 -1.93322 6529 ft 151 kts 41°
2026-04-22 15:23 50.17627 -1.92487 6602 ft 151 kts 42°
2026-04-22 15:23 50.18526 -1.91639 6664 ft 151 kts 43°
2026-04-22 15:23 50.19420 -1.90782 6732 ft 150 kts 43°
2026-04-22 15:23 50.20306 -1.89923 6802 ft 150 kts 44°
2026-04-22 15:24 50.21187 -1.89056 6876 ft 150 kts 44°
2026-04-22 15:24 50.22068 -1.88184 6951 ft 150 kts 43°
2026-04-22 15:24 50.22917 -1.87342 7136 ft 144 kts 43°
2026-04-22 15:24 50.23767 -1.86475 7186 ft 147 kts 46°
2026-04-22 15:25 50.24627 -1.85574 7210 ft 150 kts 44°
2026-04-22 15:25 50.25508 -1.84627 7227 ft 153 kts 44°
2026-04-22 15:25 50.26377 -1.83677 7228 ft 155 kts 47°
2026-04-22 15:25 50.27266 -1.82680 7231 ft 155 kts 45°
2026-04-22 15:26 50.28141 -1.81684 7235 ft 156 kts 45°
2026-04-22 15:26 50.29011 -1.80678 7238 ft 156 kts 45°
2026-04-22 15:26 50.29869 -1.79673 7237 ft 156 kts 48°
2026-04-22 15:26 50.30735 -1.78647 7238 ft 156 kts 49°
2026-04-22 15:27 50.31596 -1.77616 7240 ft 156 kts 46°
2026-04-22 15:27 50.32456 -1.76580 7246 ft 157 kts 45°
2026-04-22 15:27 50.33390 -1.75670 7245 ft 160 kts 39°
2026-04-22 15:27 50.34438 -1.75017 7241 ft 162 kts 29°
2026-04-22 15:28 50.35521 -1.74475 7239 ft 164 kts 26°
2026-04-22 15:28 50.36601 -1.73912 7239 ft 164 kts 28°
2026-04-22 15:28 50.37681 -1.73359 7239 ft 163 kts 29°
2026-04-22 15:28 50.38768 -1.72827 7241 ft 164 kts 27°
2026-04-22 15:29 50.39855 -1.72294 7243 ft 164 kts 27°
2026-04-22 15:29 50.40943 -1.71762 7239 ft 163 kts 29°
2026-04-22 15:29 50.42025 -1.71215 7238 ft 163 kts 27°
2026-04-22 15:30 50.44194 -1.70136 7246 ft 164 kts 27°
2026-04-22 15:30 50.45284 -1.69614 7248 ft 164 kts 26°
2026-04-22 15:30 50.46374 -1.69079 7243 ft 164 kts 27°
2026-04-22 15:30 50.47460 -1.68532 7243 ft 164 kts 29°
2026-04-22 15:31 50.48549 -1.67996 7244 ft 164 kts 27°
2026-04-22 15:31 50.49644 -1.67480 7247 ft 164 kts 26°
2026-04-22 15:31 50.50721 -1.66912 7250 ft 162 kts 31°
2026-04-22 15:31 50.51768 -1.66255 7251 ft 162 kts 32°
2026-04-22 15:32 50.52808 -1.65578 7246 ft 161 kts 32°
2026-04-22 15:32 50.53839 -1.64888 7248 ft 161 kts 34°
2026-04-22 15:32 50.54870 -1.64199 7248 ft 161 kts 33°
2026-04-22 15:32 50.55897 -1.63501 7250 ft 161 kts 33°
2026-04-22 15:33 50.56927 -1.62796 7247 ft 161 kts 34°
2026-04-22 15:33 50.57957 -1.62094 7245 ft 162 kts 33°
2026-04-22 15:33 50.58990 -1.61394 7247 ft 161 kts 33°
2026-04-22 15:33 50.60015 -1.60688 7248 ft 160 kts 33°
2026-04-22 15:34 50.61036 -1.59983 7246 ft 161 kts 32°
2026-04-22 15:34 50.62061 -1.59294 7246 ft 160 kts 34°
2026-04-22 15:34 50.63090 -1.58618 7252 ft 160 kts 34°
2026-04-22 15:34 50.64110 -1.57915 7247 ft 161 kts 33°
2026-04-22 15:35 50.64789 -1.57441 7250 ft 162 kts 33°
2026-04-22 15:35 50.66186 -1.56463 6948 ft 172 kts 34°
2026-04-22 15:35 50.67188 -1.55647 6524 ft 156 kts 39°
2026-04-22 15:35 50.68141 -1.54845 6054 ft 151 kts 37°
2026-04-22 15:36 50.69063 -1.54109 5592 ft 146 kts 37°
2026-04-22 15:36 50.69973 -1.53416 5101 ft 147 kts 35°
2026-04-22 15:36 50.70916 -1.52799 4615 ft 144 kts 32°
2026-04-22 15:36 50.71849 -1.52246 4147 ft 142 kts 30°
2026-04-22 15:37 50.72787 -1.51784 3681 ft 141 kts 26°
2026-04-22 15:37 50.73751 -1.51469 3192 ft 142 kts 19°
2026-04-22 15:37 50.74715 -1.51257 2727 ft 138 kts 19°
2026-04-22 15:37 50.75653 -1.51022 2192 ft 135 kts 23°
2026-04-22 15:38 50.76551 -1.50625 1664 ft 133 kts 28°
2026-04-22 15:38 50.78040 -1.49545 1138 ft 116 kts 38°
2026-04-22 15:38 50.78790 -1.48912 1266 ft 128 kts 39°
2026-04-22 15:39 50.79594 -1.48148 1257 ft 140 kts 41°
2026-04-22 15:39 50.80430 -1.47341 1281 ft 142 kts 39°
2026-04-22 15:39 50.81268 -1.46515 1318 ft 140 kts 40°
2026-04-22 15:39 50.82079 -1.45657 1359 ft 142 kts 43°
2026-04-22 15:40 50.82840 -1.44629 1343 ft 140 kts 51°
2026-04-22 15:40 50.83552 -1.43648 1424 ft 134 kts 39°
2026-04-22 15:40 50.84394 -1.42943 1496 ft 137 kts 37°
2026-04-22 15:40 50.85266 -1.42382 1631 ft 136 kts 27°
2026-04-22 15:41 50.86152 -1.41800 1574 ft 143 kts 33°
2026-04-22 15:41 50.87061 -1.41106 1624 ft 146 kts 31°
2026-04-22 15:41 50.87901 -1.40508 1548 ft 121 kts 39°
2026-04-22 15:41 50.88591 -1.39853 1295 ft 117 kts 39°
2026-04-22 15:42 50.89267 -1.39199 1160 ft 112 kts 37°
2026-04-22 15:42 50.89983 -1.38637 960 ft 115 kts 33°
2026-04-22 15:42 50.90710 -1.38161 868 ft 111 kts 33°
2026-04-22 15:42 50.91424 -1.37754 749 ft 107 kts 36°
2026-04-22 15:43 50.92110 -1.37337 594 ft 101 kts 31°
2026-04-22 15:43 50.92684 -1.36991 439 ft 81 kts 26°
2026-04-22 15:43 50.93186 -1.36736 336 ft 70 kts 37°
2026-04-22 15:43 50.93679 -1.36457 257 ft 77 kts 31°
2026-04-22 15:44 50.94181 -1.36161 148 ft 82 kts 38°
2026-04-22 15:44 50.94666 -1.35888 37 ft 59 kts 28°
2026-04-22 15:44 50.94925 -1.35734 37 ft 27 kts 21°
2026-04-22 15:44 50.95030 -1.35777 37 ft 19 kts 294°
2026-04-22 15:45 50.95019 -1.35940 36 ft 18 kts 199°
2026-04-22 15:45 50.94912 -1.36003 36 ft 15 kts 206°
2026-04-22 15:45 50.94918 -1.36154 36 ft 17 kts 290°
2026-04-22 15:45 50.94954 -1.36195 36 ft 6 kts 19°
2026-04-22 15:46 50.94986 -1.36178 36 ft 3 kts 19°
2026-04-22 15:46 50.94987 -1.36177 36 ft 0 kts 19°